Theta_e
281 281 281 281 282 283 283 282 282 282 282 282 282 282 283 283 281 280 281 283 283 282 282 283 282 284 285 286 286 286 286 288 289 287 288 288 288 292 296 300 302 304 306 307 306 305 304 304 305 306 306 307 307 307 307 307 308 309 309 310 309 309 308 307 307 306 306 306 306 306 305 306 306 305
280 281 281 281 282 282 282 282 282 282 282 281 282 282 282 282 281 281 280 281 284 284 281 282 282 281 283 285 286 286 286 289 289 287 287 287 288 292 295 298 300 302 304 305 305 305 304 304 304 304 305 305 306 307 307 307 307 307 308 309 309 309 308 307 307 306 305 305 305 304 304 305 305 304
281 280 280 281 281 282 282 282 282 282 282 282 281 282 282 282 282 282 281 280 284 284 285 282 282 283 282 283 284 285 285 287 289 287 286 286 289 291 292 294 298 300 302 303 304 304 304 304 303 303 304 304 304 305 305 305 306 306 306 307 308 308 308 307 306 305 304 303 303 303 303 303 304 303
280 280 280 280 280 281 281 281 281 282 282 282 281 281 281 282 282 282 281 280 281 285 285 286 284 282 283 283 283 283 284 286 289 286 286 286 288 288 288 292 295 298 300 301 303 304 303 303 303 302 302 303 304 303 304 304 305 305 305 306 306 306 307 305 305 304 302 302 302 302 302 302 302 302
278 278 279 279 280 280 280 281 281 281 282 281 281 281 281 281 281 281 281 280 281 283 284 285 285 284 282 282 282 283 283 283 284 287 286 286 285 286 286 286 290 295 298 300 301 302 302 302 302 302 301 301 302 302 302 302 303 303 304 304 305 305 304 304 304 303 302 302 301 301 301 302 302 302
278 278 278 278 279 279 280 280 280 281 281 281 281 281 281 281 281 282 281 281 281 280 283 283 285 282 281 283 282 283 283 283 283 283 285 285 285 285 285 285 286 291 295 298 300 301 302 301 301 301 300 301 300 301 301 301 302 303 303 302 302 303 304 304 302 301 301 301 301 301 301 301 301 302
277 277 277 278 278 280 279 280 280 280 280 281 281 281 281 281 281 282 282 281 280 280 281 283 283 284 282 282 283 282 284 284 284 283 284 284 285 285 285 284 285 289 293 296 298 300 301 301 300 300 300 300 300 300 300 300 301 301 301 301 301 301 301 301 301 301 300 301 301 300 300 301 301 301
276 276 276 277 277 278 278 278 279 279 280 280 280 281 281 281 281 282 282 282 281 281 280 282 282 284 282 283 282 282 283 283 283 283 284 283 284 284 284 283 283 286 291 293 296 298 299 301 300 299 299 299 299 299 299 299 300 300 300 300 300 300 299 300 299 300 300 301 301 300 300 300 300 300
276 276 276 276 277 277 277 277 278 278 278 279 280 280 281 281 281 282 281 281 281 281 280 281 282 283 283 283 282 281 281 282 282 282 283 283 283 283 283 283 283 286 289 291 293 296 298 299 299 299 299 299 298 298 298 299 299 299 299 299 298 299 298 298 298 298 299 299 298 299 299 300 300 300
276 276 276 277 277 277 276 277 277 278 278 279 279 279 280 280 281 281 281 281 281 281 281 281 281 281 281 282 282 282 282 282 282 282 282 282 282 282 281 281 282 283 283 284 287 292 295 298 299 299 298 298 298 298 298 298 298 298 297 297 297 298 298 298 298 297 298 298 297 298 298 299 300 299
276 276 276 277 277 277 277 277 277 277 278 278 278 279 279 280 280 280 280 280 280 280 280 281 281 281 281 281 281 282 282 283 283 282 281 281 281 281 281 282 282 282 283 285 287 288 291 293 295 297 297 297 298 297 297 297 297 297 296 296 297 297 297 297 297 297 297 297 296 296 297 298 299 299
276 276 276 276 277 277 277 277 277 277 277 278 278 279 279 279 279 279 280 280 280 280 280 280 280 280 280 280 279 281 280 280 281 282 282 281 282 281 281 282 282 282 281 281 282 286 289 291 293 296 297 297 297 297 296 296 295 294 296 296 296 297 297 297 296 296 297 296 296 296 296 296 297 298
275 276 276 276 276 277 279 280 281 281 281 279 278 279 280 279 279 279 279 279 279 279 279 279 280 280 280 280 280 278 278 279 281 283 282 282 283 282 281 281 282 282 281 281 281 281 283 284 287 289 291 293 295 294 295 294 294 294 296 296 296 296 296 296 296 296 296 296 296 295 295 295 296 297
274 275 275 276 278 278 279 279 280 281 281 282 281 279 280 279 279 279 278 278 278 278 278 278 279 278 278 280 280 280 280 281 282 282 281 281 282 281 281 281 281 282 281 280 279 280 282 283 284 286 288 290 291 292 292 292 293 294 296 296 296 296 296 296 295 295 296 296 295 294 294 295 295 295
273 273 274 274 275 276 276 276 278 279 280 281 281 282 282 282 280 279 279 279 279 278 278 278 279 278 278 279 280 281 281 281 280 281 282 281 282 281 279 279 281 282 282 280 280 280 281 282 282 284 286 287 288 290 290 293 294 294 295 295 295 295 295 295 295 295 295 295 294 294 294 294 294 295
272 272 273 273 274 274 274 275 275 277 278 279 280 280 281 281 282 283 281 280 279 279 278 278 278 278 278 279 280 280 281 280 280 280 281 281 281 281 280 280 281 282 283 280 279 279 281 281 281 282 284 286 287 288 291 293 294 295 295 295 295 295 295 295 295 294 294 294 294 293 293 293 294 293
271 271 270 270 271 271 273 272 272 272 272 275 276 277 278 279 280 281 282 283 281 280 280 279 279 279 279 279 280 281 281 281 280 279 280 280 281 281 281 282 282 281 282 281 280 279 281 281 280 280 282 284 285 287 291 293 294 295 295 295 295 295 294 294 294 294 294 294 293 293 293 293 293 293
269 269 268 268 268 269 269 270 270 270 271 271 272 272 272 273 275 277 279 279 280 280 279 280 279 281 282 280 281 282 283 282 280 280 279 280 280 280 281 283 284 282 282 281 280 279 281 281 280 280 281 283 284 285 288 292 293 294 295 295 295 294 294 294 294 294 294 294 293 293 292 292 293 292
268 268 268 268 268 268 269 269 271 271 271 271 271 271 272 273 274 275 275 276 277 277 278 278 279 280 282 282 283 283 283 283 283 283 282 281 281 282 283 283 284 282 282 282 281 279 282 282 280 280 281 282 283 284 287 290 292 293 294 294 294 295 294 294 293 293 294 294 293 293 292 292 292 292
268 268 268 268 268 268 269 271 274 274 272 272 271 272 273 273 274 275 277 279 280 279 280 280 280 280 281 284 283 284 284 284 284 284 284 282 281 281 280 279 281 282 282 282 281 280 282 282 280 281 282 282 282 283 283 288 291 292 293 294 294 294 294 294 294 293 293 293 292 292 292 292 292 291
268 268 268 268 268 268 268 271 274 275 275 271 271 271 271 272 273 273 275 278 279 280 281 282 283 284 286 287 287 287 287 286 285 283 281 280 281 279 278 279 280 280 282 280 281 281 280 281 280 281 281 281 281 282 282 283 288 291 292 294 294 294 294 294 293 294 293 293 292 292 292 292 292 290
268 268 271 270 268 268 268 272 274 275 274 271 271 272 272 271 271 272 274 275 276 279 279 280 280 281 282 284 285 287 288 288 287 284 281 281 282 279 279 278 279 281 282 280 282 280 279 282 279 279 278 280 280 281 282 282 283 288 290 293 294 294 294 294 294 293 293 293 292 292 292 291 291 289
267 267 269 271 271 270 271 275 275 276 274 272 271 271 271 270 269 271 273 273 274 275 275 275 276 277 279 279 278 279 283 285 286 285 284 284 282 280 280 280 279 279 280 282 282 279 279 281 279 280 275 275 278 280 280 281 281 282 285 288 290 293 293 293 294 293 293 293 292 292 292 291 290 287
267 267 267 269 273 274 275 275 276 276 276 273 272 272 270 269 269 271 272 272 273 273 274 275 275 275 276 276 277 279 280 281 282 283 284 284 284 282 281 280 280 278 280 283 282 279 281 282 279 280 279 278 276 276 279 279 280 281 282 285 286 290 292 292 292 294 293 293 292 292 291 291 290 286
266 267 268 268 272 274 275 276 276 277 277 276 273 273 271 272 273 275 273 273 275 273 273 274 275 275 275 276 277 278 279 281 281 282 283 284 284 283 282 281 280 280 282 282 284 281 279 281 279 280 278 279 278 275 276 278 279 280 281 283 284 286 289 290 290 290 292 292 292 292 291 291 291 287
268 268 269 269 271 274 275 276 276 277 277 277 274 273 277 278 278 275 275 274 274 273 273 273 274 274 274 274 275 276 277 279 281 282 282 283 283 284 284 283 281 280 281 283 286 281 280 279 280 279 278 278 276 276 275 275 278 279 280 281 283 285 287 287 288 288 288 288 289 290 290 291 291 289
269 269 270 270 273 275 275 276 277 277 277 276 274 277 277 277 277 277 274 274 273 273 273 273 273 273 274 274 275 275 275 277 279 280 282 282 282 283 284 285 285 284 284 283 283 282 282 280 281 280 278 278 278 275 275 275 275 278 278 280 282 284 285 287 286 286 286 287 287 290 290 291 290 290
270 270 269 270 274 275 276 276 277 277 277 275 277 278 278 278 277 274 272 271 270 271 270 270 270 271 272 274 275 276 277 277 278 280 281 282 282 282 283 284 285 285 285 283 282 283 282 282 281 281 281 279 277 276 274 277 276 276 276 279 281 283 284 285 285 285 285 286 285 286 286 286 287 287
270 272 275 275 276 276 276 277 277 276 275 276 276 277 277 276 273 271 270 270 269 268 268 269 270 270 271 273 275 276 277 278 279 279 280 281 282 283 283 283 284 284 285 284 283 283 283 283 282 281 281 281 279 279 279 276 275 276 277 277 277 281 282 284 284 284 284 284 284 284 285 285 285 285
276 276 276 276 276 275 274 272 270 270 270 274 276 277 276 272 271 271 270 270 270 269 269 270 270 271 272 273 274 275 276 276 276 278 278 279 280 281 281 281 282 283 284 284 283 283 283 283 283 282 280 280 280 279 279 278 275 276 277 277 278 280 281 282 283 283 283 282 283 283 284 285 284 284
270 270 271 271 274 274 275 275 275 275 275 273 272 271 270 269 269 269 269 269 268 269 269 269 269 270 272 273 273 273 274 275 276 278 278 279 279 280 280 280 280 281 283 284 283 283 283 283 283 282 280 279 280 280 280 280 277 275 276 277 278 276 278 281 282 282 282 282 282 282 283 283 283 284
269 269 272 272 271 270 269 269 269 268 268 269 269 269 269 269 269 271 273 273 271 271 271 271 271 271 271 271 272 274 274 275 276 277 278 278 279 280 280 279 279 280 282 281 281 282 282 283 283 282 282 281 279 279 280 279 278 276 275 277 278 279 279 279 280 281 282 281 280 280 280 281 281 282
272 272 270 268 267 267 267 267 267 267 267 268 268 268 268 269 269 269 269 269 269 269 269 269 270 270 271 271 272 273 274 275 276 278 278 278 278 279 280 278 279 279 279 279 277 279 280 282 283 283 282 282 282 281 279 277 277 277 276 276 277 277 278 279 280 280 280 279 278 278 278 278 279 280
271 270 269 269 269 269 268 267 267 267 267 266 267 267 270 270 270 270 270 270 270 270 270 271 271 271 271 271 273 273 274 275 276 278 279 278 279 279 278 278 278 279 280 280 277 277 277 278 276 276 276 276 275 279 281 279 277 277 276 276 276 276 277 277 279 280 279 278 278 276 275 276 276 276
268 268 266 266 266 265 265 265 265 266 266 267 267 268 269 270 270 270 270 271 271 271 271 271 271 271 272 272 273 273 274 275 276 278 279 279 279 279 278 278 278 279 279 279 277 277 277 276 276 274 274 274 276 275 278 279 279 277 276 276 276 276 276 276 277 278 278 277 278 275 275 275 274 275
266 265 264 264 264 265 265 266 267 267 267 268 268 268 268 269 270 270 270 271 271 271 271 271 271 271 271 272 273 274 275 276 277 278 278 279 279 279 279 279 278 279 279 279 277 276 276 275 276 275 273 273 273 273 275 279 279 279 275 274 276 275 276 275 276 277 277 276 276 276 273 272 273 274
262 262 262 262 263 264 265 265 266 267 267 268 268 268 268 268 269 270 271 272 271 271 271 271 271 271 272 272 273 274 276 276 276 277 278 279 279 278 278 278 278 278 278 278 277 275 275 275 275 275 274 273 272 272 274 276 274 278 278 276 275 275 275 274 274 274 275 276 275 275 275 274 273 273
260 260 260 261 262 263 264 265 265 265 266 267 267 268 268 269 270 271 272 271 271 271 271 271 271 272 272 273 274 275 276 277 277 277 277 277 277 278 278 277 277 277 277 277 275 274 275 275 275 275 275 273 272 272 273 269 270 275 278 278 275 274 275 273 272 272 273 275 274 275 276 273 272 272
259 260 260 261 262 262 262 263 263 264 265 265 266 267 268 269 271 271 271 271 271 271 271 271 272 273 273 274 275 275 275 276 276 277 277 277 277 277 277 277 276 276 276 274 273 273 274 274 275 275 275 275 274 274 276 273 270 274 276 279 277 274 273 273 272 273 272 272 273 274 273 275 275 276
259 260 260 260 260 260 261 262 262 263 264 265 265 267 269 270 271 271 271 271 270 271 271 271 272 273 273 274 275 276 276 276 277 277 277 277 277 277 277 277 277 276 275 273 271 272 272 273 274 275 276 277 277 275 273 273 271 272 273 277 280 277 274 274 273 272 271 272 273 271 269 271 269 272
258 258 258 259 259 260 260 261 262 263 264 265 266 268 268 269 270 271 271 271 271 271 271 271 272 272 273 274 275 275 275 276 276 277 277 277 276 276 277 276 276 275 273 271 271 271 271 273 275 278 274 271 271 274 272 268 266 268 270 273 278 278 278 277 275 274 271 273 271 270 269 268 268 270
258 258 258 258 259 259 260 261 262 263 264 265 266 267 267 268 269 272 273 274 273 273 272 273 273 274 274 275 276 276 275 275 275 276 275 275 275 275 275 274 273 273 273 271 271 271 273 273 273 273 272 273 273 272 270 270 269 268 269 272 273 276 276 277 277 276 274 272 270 269 268 267 268 266
258 257 257 258 259 260 261 261 262 263 263 264 265 266 266 267 268 269 271 272 273 274 274 274 275 275 276 276 276 276 276 275 275 275 275 274 274 274 274 274 274 273 273 273 270 270 270 271 272 271 272 272 273 273 271 270 269 268 269 268 269 272 273 276 276 276 276 275 274 272 271 269 267 264
257 258 258 259 259 260 261 261 262 263 263 264 265 265 266 266 266 268 270 271 271 272 273 274 275 275 275 276 276 276 276 276 276 275 275 274 274 274 274 274 273 272 271 269 268 269 269 269 270 271 271 270 271 272 270 268 267 268 268 269 270 269 269 271 273 275 275 275 275 274 274 274 273 273
258 258 259 259 260 261 261 262 262 263 263 264 264 265 265 266 266 267 269 269 269 270 270 271 273 274 275 275 275 275 276 277 276 275 275 274 274 274 273 273 271 270 269 269 267 267 268 268 269 270 269 269 268 269 270 268 268 267 267 268 267 269 269 269 269 268 268 269 273 275 275 275 275 275
Wind_Speed
4 4 4 4 6 6 4 4 5 6 5 5 5 5 7 7 9 12 12 15 11 5 6 6 4 6 9 9 8 8 9 9 11 9 9 10 10 12 19 22 22 23 23 22 19 20 18 17 16 17 17 17 17 18 17 17 17 17 17 17 17 19 19 20 20 18 16 17 16 16 18 16 14 11
4 5 5 5 6 6 5 6 5 5 6 6 6 6 6 6 9 9 10 17 9 10 3 5 4 3 7 7 8 7 9 11 12 9 9 10 11 13 19 21 22 22 23 23 22 20 20 19 19 19 18 18 19 19 19 18 18 18 18 19 21 21 20 20 20 18 17 17 17 17 17 17 15 14
6 6 6 6 6 6 6 7 6 5 5 6 6 6 6 6 8 9 9 13 15 2 11 4 6 6 5 5 6 6 6 8 10 9 8 10 13 17 13 18 19 22 22 22 21 25 25 22 22 20 19 19 20 20 20 20 20 19 17 17 19 21 21 20 20 18 18 20 19 19 19 18 18 17
7 8 9 8 7 6 5 7 6 7 6 6 6 6 6 7 7 8 9 12 19 7 11 11 8 5 6 7 7 7 7 7 11 8 9 11 14 11 9 12 20 21 22 22 22 23 25 25 23 23 22 21 22 22 22 22 22 21 21 21 20 21 22 20 18 17 20 21 21 20 20 20 19 19
6 7 8 10 9 6 6 7 7 7 7 6 6 6 6 7 7 7 9 12 16 12 5 10 9 7 5 7 6 9 8 7 7 9 9 9 9 9 9 10 17 21 22 22 22 23 24 26 23 23 23 23 23 23 23 22 21 22 22 22 24 24 21 21 19 21 22 23 22 21 21 21 20 20
6 8 9 10 9 6 8 9 8 7 7 7 7 7 7 8 8 7 8 11 12 16 7 8 9 8 4 10 3 7 8 9 7 9 10 8 9 9 9 9 10 18 21 23 23 23 24 25 23 23 23 23 23 23 24 23 23 23 23 22 23 24 24 24 23 23 23 23 22 22 21 21 21 20
7 8 9 10 8 6 9 9 9 7 8 7 8 10 7 8 9 7 9 10 13 14 12 7 10 9 6 9 9 6 9 8 8 10 10 9 8 9 9 9 8 12 20 23 24 23 24 24 26 25 23 23 23 24 24 24 24 25 25 24 23 22 21 24 24 24 24 24 23 23 22 22 21 21
11 10 11 10 7 6 9 10 10 8 7 8 9 10 9 8 9 8 8 10 11 11 13 9 8 9 9 10 7 6 7 7 8 8 9 6 9 8 7 9 9 9 17 21 23 24 24 25 26 28 26 24 23 24 24 24 23 23 23 24 23 23 23 24 25 26 25 25 24 23 23 22 22 21
11 12 12 13 11 8 10 10 9 8 9 9 9 10 10 9 8 8 8 10 10 12 14 13 8 7 9 8 8 5 7 7 8 7 9 8 9 9 7 7 7 9 16 20 22 23 24 25 28 26 26 27 25 25 24 24 24 24 24 24 24 26 26 25 25 25 25 24 24 24 24 23 23 22
10 10 12 13 12 11 11 12 11 9 10 10 10 11 11 10 9 10 10 9 11 12 14 13 12 7 9 9 9 6 7 8 9 8 8 6 6 7 7 8 7 7 8 9 11 17 20 23 25 24 26 29 25 27 26 25 26 24 24 24 24 25 26 26 25 26 26 23 24 25 25 24 24 24
11 11 11 12 12 12 12 13 13 12 11 10 12 11 11 11 10 11 11 10 11 12 13 13 11 10 8 8 12 8 6 9 10 11 9 9 6 6 8 10 7 6 8 10 14 13 13 16 15 20 25 28 26 29 27 26 28 25 24 24 24 24 27 27 27 28 27 25 26 26 25 24 26 24
11 11 11 11 12 13 13 13 13 13 12 11 12 11 10 10 11 11 11 11 11 12 12 13 13 9 10 7 7 6 1 6 9 7 7 11 9 9 9 10 9 7 8 9 9 11 12 14 18 20 21 25 26 28 25 26 26 26 24 24 25 27 28 29 29 28 26 25 25 25 25 24 24 25
10 10 10 11 11 13 19 23 22 20 19 14 13 13 11 11 11 11 11 11 11 12 12 14 12 11 11 10 9 7 7 10 13 7 7 11 11 6 6 9 9 8 9 9 8 9 10 10 10 10 12 15 23 24 25 20 26 25 25 25 27 28 29 28 29 28 26 25 26 27 27 26 25 25
11 11 11 13 23 26 26 25 25 26 26 25 19 15 13 12 11 12 12 12 11 11 13 13 13 13 13 12 10 10 10 9 8 8 6 11 9 6 9 9 9 9 9 7 10 10 8 9 11 11 13 13 14 12 15 15 17 22 28 31 30 29 28 28 30 30 27 27 27 28 28 28 27 24
14 11 11 12 18 21 22 21 26 27 27 26 26 27 27 23 18 14 14 14 12 13 13 13 13 13 15 15 11 10 9 8 9 10 9 10 9 9 9 13 6 9 10 11 9 9 8 10 13 13 14 13 12 13 15 20 22 23 27 32 32 29 29 29 30 31 28 28 29 29 28 28 29 25
13 14 14 13 11 10 12 13 15 18 23 25 26 27 26 26 28 26 19 16 14 13 13 14 15 14 16 15 12 10 8 8 7 9 10 11 11 11 11 11 13 4 13 9 10 14 8 11 12 13 14 13 12 14 17 22 23 25 26 30 31 33 29 31 31 32 30 30 30 30 29 30 28 27
15 15 15 15 13 12 20 17 15 16 17 23 29 30 31 31 30 27 29 28 21 15 16 15 17 16 15 16 15 10 10 5 9 7 11 10 10 12 13 13 13 4 12 11 11 14 11 11 12 14 14 13 12 13 18 23 25 28 32 31 33 33 32 33 32 31 31 29 31 30 31 31 27 26
15 15 15 15 15 13 13 13 14 14 16 15 15 14 14 14 20 26 29 29 31 27 19 17 18 17 14 16 15 14 9 10 10 8 11 9 11 12 15 15 14 5 11 14 11 10 8 11 12 15 14 12 11 13 16 25 27 28 31 32 32 33 33 33 32 32 31 32 32 30 32 30 28 27
15 15 14 15 16 15 14 13 16 17 17 15 13 14 14 14 14 12 13 14 13 14 15 17 18 19 18 18 17 16 13 13 14 11 11 11 12 12 12 13 11 6 10 10 9 14 11 8 10 14 12 9 11 12 14 23 26 28 29 30 32 33 33 33 33 33 30 31 33 32 32 30 29 29
14 14 14 14 15 15 16 19 25 22 18 16 16 16 14 13 13 15 15 21 21 19 17 15 16 16 19 21 19 17 14 13 13 13 11 8 8 9 11 13 9 12 8 11 12 11 12 6 12 14 8 7 12 12 10 18 27 28 29 29 32 32 34 32 33 33 33 33 34 32 32 30 30 29
14 14 14 14 15 17 17 21 26 26 25 18 16 15 17 15 15 13 12 18 25 28 30 32 35 35 35 35 35 35 39 26 16 12 12 14 10 11 13 12 11 12 8 10 12 11 13 7 10 10 5 10 12 10 10 12 20 28 28 32 31 30 32 32 35 32 34 33 32 33 33 32 29 30
13 15 24 22 18 18 19 25 28 28 24 17 16 15 15 16 14 13 9 10 14 25 29 32 34 34 34 35 35 34 33 36 25 16 17 14 11 15 12 14 13 11 10 9 12 11 14 7 5 5 0 4 6 8 10 10 10 20 24 31 30 31 32 32 32 32 34 34 33 33 33 31 29 20
15 16 16 25 24 23 24 32 30 29 24 17 14 14 16 17 16 11 11 13 14 12 12 14 15 18 22 22 19 22 34 37 27 19 17 14 15 15 14 15 12 12 12 10 16 13 10 12 5 7 2 6 5 5 6 8 10 10 11 15 20 30 30 30 30 31 32 32 33 34 34 32 28 12
12 13 12 17 25 31 32 30 30 28 28 21 16 13 12 13 17 11 13 15 15 15 14 13 13 15 15 16 17 14 15 19 21 20 19 17 16 15 15 15 14 14 10 6 16 13 10 10 7 8 10 9 8 4 8 8 9 10 11 11 12 19 26 26 25 30 29 31 34 34 34 32 28 12
11 10 11 10 20 28 29 30 31 31 29 27 20 16 14 15 18 21 15 16 23 15 14 13 14 13 12 12 13 14 15 14 14 16 18 18 18 17 16 16 15 15 13 7 18 12 10 8 9 8 8 9 5 2 2 7 7 9 10 13 13 12 13 15 14 17 23 31 34 34 34 33 36 17
10 10 10 10 20 31 31 31 31 32 30 31 20 17 26 31 31 22 16 13 10 10 12 13 12 13 13 13 12 13 14 16 14 15 16 16 18 17 16 17 16 15 14 9 22 13 10 8 11 11 9 10 7 3 3 3 6 8 9 9 11 12 12 12 13 13 14 16 17 23 25 34 33 25
13 12 14 15 27 30 31 31 32 32 34 28 19 29 30 30 32 26 14 12 11 11 10 11 13 12 11 10 11 11 13 13 15 16 15 15 16 16 16 17 16 17 14 7 14 13 13 10 9 13 11 10 11 4 5 7 4 6 7 10 11 10 10 10 12 12 12 13 13 24 29 31 34 33
14 14 14 16 29 33 33 33 32 31 29 21 28 29 30 30 28 16 12 11 11 12 12 12 13 13 12 11 12 11 11 12 13 14 16 17 18 17 15 16 17 16 16 10 11 14 13 13 9 10 13 12 11 12 10 6 4 9 11 10 9 10 10 12 12 11 11 11 11 12 14 15 18 20
15 22 33 35 34 32 33 33 32 25 22 26 27 29 29 28 14 11 10 11 12 12 13 13 13 13 13 12 12 12 14 15 14 15 16 16 17 16 16 16 15 15 14 12 11 14 13 13 12 9 11 11 12 12 11 9 8 9 10 9 9 10 11 10 10 11 11 11 12 13 15 14 14 14
35 34 34 37 36 32 26 19 14 12 13 22 28 31 29 15 10 9 9 10 10 12 13 13 14 13 12 11 11 14 14 14 16 14 15 15 17 15 14 13 14 14 14 13 11 13 14 13 13 11 11 12 13 13 12 9 8 8 10 12 10 7 8 11 13 13 13 13 13 13 12 11 13 13
18 22 24 21 27 25 31 31 28 25 24 19 16 12 11 10 11 11 10 11 13 14 13 15 14 13 12 11 11 12 13 14 13 14 16 16 16 15 14 14 14 13 13 13 12 13 13 13 13 12 12 12 11 13 11 10 10 9 9 11 11 11 10 12 9 9 10 11 10 10 10 10 10 12
15 16 20 22 15 13 13 13 10 10 11 12 13 12 11 12 13 16 22 22 16 14 13 12 13 12 11 12 12 12 12 13 14 13 14 17 17 16 14 15 16 14 12 11 10 12 13 13 13 12 13 13 13 11 9 9 11 10 10 11 11 9 8 13 13 13 12 10 10 11 12 11 12 11
13 10 9 7 9 9 11 10 10 10 10 11 12 14 13 12 12 12 10 12 12 14 13 14 13 14 12 12 13 13 15 14 14 13 15 16 17 17 16 17 14 13 13 10 9 10 10 10 11 12 11 11 12 12 11 10 10 9 11 11 11 10 8 10 12 11 11 12 12 11 10 9 9 10
14 11 10 10 9 9 9 9 9 10 9 10 10 11 14 14 11 12 11 12 13 12 12 13 12 12 12 15 13 12 14 15 16 18 17 15 15 16 15 15 16 14 13 11 9 9 8 7 3 1 1 2 0 6 11 13 11 10 9 10 11 12 10 10 11 12 13 14 14 12 10 9 8 6
10 11 10 11 10 10 9 10 10 10 10 11 11 11 11 11 13 14 13 12 12 13 12 12 12 12 11 12 13 13 16 17 18 14 14 15 15 17 17 16 15 14 12 11 8 8 9 8 6 4 2 2 5 4 3 5 11 10 9 11 12 13 11 10 11 11 12 10 10 12 11 10 10 9
9 9 10 10 10 8 9 9 10 9 11 11 12 12 12 13 11 12 11 12 12 12 12 11 12 11 13 12 13 14 16 16 15 13 13 13 14 15 14 13 12 12 11 11 8 7 8 8 9 10 10 8 10 10 12 9 8 9 13 11 10 10 9 10 10 10 11 11 11 12 13 14 12 11
10 9 10 10 10 10 11 10 10 11 11 11 11 11 12 13 13 12 14 15 13 11 10 11 10 11 11 13 15 15 15 16 13 11 10 11 13 12 11 11 12 11 11 9 7 8 8 9 9 11 11 11 11 13 12 5 6 5 9 12 10 10 11 10 10 10 11 12 12 12 13 11 11 8
10 10 9 9 8 11 10 12 9 11 11 12 12 12 13 13 14 13 14 11 10 9 10 10 10 11 10 11 12 12 13 11 12 11 10 9 8 8 10 10 10 10 9 8 7 9 9 9 10 11 12 12 12 12 12 1 1 9 9 9 11 10 9 10 11 12 12 10 11 10 8 7 7 5
7 9 9 9 11 11 11 12 12 12 12 13 13 13 13 13 13 13 10 10 9 9 9 9 10 10 11 11 11 11 12 12 12 10 10 9 10 9 7 7 7 7 8 7 6 7 8 10 10 11 13 12 13 12 12 10 11 10 10 13 9 10 10 13 13 12 11 11 9 4 3 3 7 11
9 8 9 10 11 10 11 11 11 12 13 12 12 13 13 14 13 12 11 10 9 9 9 10 11 11 11 11 11 10 13 14 13 10 9 9 9 10 10 10 10 9 10 10 10 9 10 11 11 11 12 13 9 2 1 4 4 4 4 10 18 15 15 14 13 12 11 10 9 9 10 9 8 8
10 11 9 9 9 10 11 11 11 12 13 13 13 15 15 14 15 13 11 10 9 9 9 9 10 11 11 12 12 11 11 10 9 9 9 8 9 9 11 10 9 9 10 9 9 9 10 13 15 16 5 5 7 8 6 5 5 5 7 5 13 11 8 11 10 12 11 12 12 12 11 11 11 9
10 11 11 9 10 11 10 12 10 12 12 13 13 13 13 14 15 21 17 15 12 11 10 11 11 11 11 11 10 10 9 8 7 6 5 6 7 6 5 5 6 5 7 8 10 12 9 3 5 7 7 7 6 7 9 10 8 6 6 6 5 7 8 8 8 9 9 13 14 10 6 4 3 7
9 9 10 11 10 10 10 10 12 11 11 11 12 13 13 14 13 14 12 12 11 10 9 9 10 9 9 9 9 9 8 8 8 7 6 5 5 6 7 7 7 8 10 8 3 4 6 7 6 7 7 8 9 8 9 7 7 8 8 8 7 6 6 10 11 12 11 7 5 7 10 12 14 13
9 10 10 10 10 11 11 11 11 11 11 11 11 12 12 13 13 13 12 11 11 10 10 10 9 9 9 9 9 8 7 7 7 7 6 6 6 6 6 7 7 6 4 5 6 5 5 6 6 7 8 8 7 6 5 8 7 7 8 8 6 9 9 7 9 12 12 11 12 11 11 7 4 7
9 9 10 11 10 10 10 10 10 11 11 10 10 10 11 11 12 12 12 11 10 11 11 10 10 9 8 8 7 8 7 7 7 6 5 5 5 5 5 4 4 6 6 6 8 7 6 6 5 4 3 3 3 4 4 8 9 8 8 9 10 8 7 9 11 11 8 7 10 15 13 12 12 17
Wind_Direction
308 303 292 274 279 283 273 264 259 256 255 247 247 244 252 260 271 292 296 282 282 277 200 252 284 222 235 239 238 238 233 234 225 222 220 224 230 226 225 228 228 228 229 224 215 218 216 214 213 215 213 212 218 220 226 235 239 236 235 231 222 226 223 222 222 216 216 222 221 222 222 229 226 205
305 297 301 292 288 285 289 273 260 255 251 252 244 242 242 232 255 268 278 286 277 288 254 238 270 265 245 244 252 232 241 237 231 227 221 225 231 226 225 226 228 228 230 229 225 217 212 211 213 216 215 213 215 218 220 228 236 237 240 234 223 223 221 220 223 211 219 222 220 220 222 221 221 215
317 308 301 292 281 282 285 287 283 267 256 250 245 247 235 239 237 257 262 275 279 234 284 257 243 253 265 249 258 268 254 249 236 234 229 230 233 233 230 228 229 230 229 231 228 227 224 212 211 212 214 212 214 217 219 223 228 230 232 236 233 223 222 221 221 209 217 222 219 218 218 217 216 213
311 308 304 294 286 287 286 283 280 278 266 256 255 242 240 245 236 244 254 257 275 267 279 283 285 250 263 256 250 251 258 244 238 234 231 235 238 238 237 230 228 230 229 228 228 226 228 223 213 214 215 215 217 218 220 221 224 226 226 228 237 226 222 220 219 220 218 220 218 217 217 217 215 214
305 297 291 294 293 290 286 278 278 278 273 269 256 252 245 247 240 233 249 260 273 278 226 274 270 270 251 274 218 246 243 251 243 233 232 232 230 232 229 229 230 230 229 228 227 226 226 227 217 215 216 217 217 218 219 219 220 220 217 220 224 225 223 221 209 218 221 220 219 219 218 216 214 212
298 295 294 290 289 290 284 284 278 267 273 269 267 259 244 248 250 224 241 257 264 279 273 272 277 278 212 265 188 231 241 243 237 237 233 227 225 229 228 229 230 227 228 227 227 227 224 227 222 215 215 216 217 217 217 217 216 217 216 215 222 225 219 222 222 220 222 221 220 221 220 219 215 213
298 293 288 284 287 291 286 282 279 276 272 268 263 265 249 250 252 243 230 253 267 271 273 251 274 273 258 238 259 219 243 237 231 236 237 226 224 226 227 230 239 231 231 230 228 227 227 224 227 223 214 214 216 216 217 215 215 216 215 215 217 221 219 217 219 219 221 221 219 219 220 218 217 215
309 302 297 290 285 281 278 280 283 279 270 267 270 268 265 253 256 250 242 239 256 271 279 264 249 270 266 265 251 253 249 248 244 236 245 228 230 228 220 225 232 234 235 234 231 228 226 224 225 226 224 217 215 217 216 216 214 215 214 214 213 214 216 217 216 219 219 219 218 218 219 218 217 216
297 297 294 297 299 291 283 279 275 274 272 272 271 269 268 266 261 260 249 254 252 265 269 274 255 250 261 260 265 225 249 255 250 248 242 232 231 232 224 221 227 229 233 235 233 230 228 226 226 223 225 223 221 221 216 216 215 214 213 213 212 211 212 215 216 216 218 217 217 217 218 217 217 215
281 283 287 289 293 294 289 288 285 278 273 271 267 269 272 270 267 266 264 257 262 262 266 269 277 245 255 269 261 234 222 246 255 252 248 249 234 231 233 226 219 213 218 224 234 236 233 230 227 224 226 227 221 224 220 215 216 214 212 213 213 214 212 213 214 215 216 213 213 216 218 215 214 214
276 275 278 282 284 285 286 286 287 289 284 277 273 265 268 267 268 269 268 264 262 264 269 270 262 267 248 241 266 253 209 236 240 251 255 252 235 231 228 242 225 217 227 232 234 235 233 232 229 225 225 227 223 224 220 218 219 216 212 213 214 214 213 211 212 213 212 210 212 214 216 213 212 212
277 276 275 274 277 279 281 283 285 285 286 284 279 275 270 267 266 263 266 267 265 267 268 267 274 259 264 252 241 270 191 256 259 237 246 257 245 224 224 229 230 214 217 225 227 235 243 240 233 228 227 226 226 226 223 220 220 217 212 211 211 212 213 212 211 212 210 208 209 212 214 214 213 210
275 273 273 273 273 275 279 279 282 283 284 286 286 282 277 272 267 267 264 264 265 264 266 272 270 273 266 256 254 241 226 231 247 243 202 245 251 246 239 237 226 219 215 223 224 225 219 230 233 227 226 224 223 225 223 221 221 218 216 212 210 211 213 213 212 212 211 207 206 210 212 213 211 210
285 280 280 282 286 288 287 287 286 286 286 284 282 283 284 279 272 265 264 263 260 262 265 264 270 270 265 263 251 249 238 235 244 249 212 240 248 225 244 251 226 209 215 218 227 227 208 212 229 225 228 228 219 221 221 218 215 216 216 217 214 211 212 211 213 212 209 206 205 208 211 212 211 209
295 290 283 281 284 284 284 284 284 283 283 282 282 282 280 279 277 275 268 261 256 259 259 265 265 263 268 264 257 251 253 237 224 233 229 239 243 235 235 254 241 186 191 219 235 242 204 199 221 222 226 224 217 219 222 218 216 213 214 218 218 213 212 213 213 213 208 206 206 207 208 209 209 207
297 299 302 301 303 299 299 299 293 287 285 284 283 281 281 280 277 273 272 274 270 260 260 261 259 264 262 269 264 259 252 249 228 226 228 229 232 237 237 246 252 180 183 198 216 241 202 200 219 227 225 222 217 221 220 216 215 213 214 218 219 217 213 213 213 213 209 207 206 206 205 206 205 205
299 303 302 302 299 301 304 304 302 300 296 290 286 283 281 279 278 278 277 276 275 279 271 263 263 256 264 266 263 257 255 244 236 217 229 227 231 233 238 243 248 182 181 185 215 234 214 188 214 229 227 221 215 222 221 218 217 217 218 218 219 218 215 214 213 212 210 208 208 206 205 204 201 200
298 299 298 298 297 299 300 296 295 290 286 283 278 272 267 267 270 271 271 269 268 268 269 269 267 266 259 259 266 262 255 255 249 231 234 220 229 230 234 239 243 192 177 192 199 242 220 190 205 227 229 214 214 221 216 216 217 215 216 218 218 219 216 215 214 212 211 212 210 207 205 201 198 198
292 293 293 293 294 297 298 295 296 296 294 289 277 270 267 263 260 256 256 259 262 263 262 266 269 271 268 266 265 265 255 247 253 248 244 231 230 236 243 249 245 220 199 201 188 238 234 190 206 233 228 203 215 224 215 216 217 218 216 217 218 218 217 216 215 213 211 212 211 208 206 200 197 198
291 292 290 292 292 293 293 295 295 294 293 291 291 289 283 274 266 263 264 271 272 272 271 266 262 261 263 264 265 263 258 253 253 255 260 258 245 242 242 243 233 233 201 202 202 234 246 165 201 234 218 187 221 218 211 216 218 219 219 218 218 217 217 215 214 213 213 211 212 210 207 201 198 198
289 289 289 290 293 293 293 293 294 294 293 287 281 275 273 271 270 270 271 276 279 278 275 273 271 270 268 267 265 263 263 260 254 252 252 246 239 240 243 247 238 235 202 204 204 225 244 199 204 233 205 197 222 216 208 211 216 218 219 220 218 218 217 216 215 213 213 210 210 210 208 202 197 196
288 289 291 291 291 289 287 289 288 287 287 284 282 280 279 278 275 274 275 268 267 269 270 271 272 274 275 276 275 272 266 262 257 247 246 244 237 241 234 245 238 240 220 203 187 214 232 219 201 214 323 216 235 219 216 210 209 218 222 222 220 220 219 217 215 214 214 212 209 210 208 203 198 195
287 285 282 282 285 285 284 286 288 286 284 281 282 286 285 284 284 290 302 288 285 281 275 269 270 268 268 268 267 268 270 267 265 257 253 248 239 240 236 238 243 248 233 201 179 208 224 226 193 183 148 234 241 211 204 204 203 207 210 220 223 222 218 217 216 214 214 211 209 209 206 202 197 190
272 263 260 271 279 286 286 283 285 285 283 282 280 277 272 273 276 278 272 272 276 278 275 270 264 262 265 270 272 270 260 255 253 252 249 247 243 240 238 236 231 238 236 198 169 201 222 216 203 194 205 223 243 184 196 207 198 199 204 210 220 220 218 216 216 213 212 210 210 209 205 202 195 184
266 261 258 248 269 280 283 283 283 285 285 283 281 276 272 269 276 281 274 270 274 272 271 268 271 267 261 259 259 263 268 263 253 246 243 243 242 239 238 236 234 241 235 202 170 190 214 194 205 192 217 219 231 119 243 204 200 199 203 206 213 214 211 212 210 211 211 210 211 210 206 202 198 189
270 267 264 260 276 281 282 282 282 282 282 279 275 271 274 279 282 284 280 275 268 259 263 264 258 258 255 257 252 252 256 260 256 249 241 239 239 238 238 236 234 239 234 192 174 190 194 214 193 199 203 205 232 155 156 202 206 200 199 208 214 213 207 208 206 206 203 205 207 208 205 204 201 193
272 268 270 270 278 280 280 280 280 279 278 281 281 280 279 279 282 284 280 276 275 273 270 268 269 269 264 257 253 247 250 252 258 261 253 245 241 240 241 239 238 240 240 202 183 189 200 215 194 202 201 201 216 177 198 202 207 177 202 209 214 212 209 207 206 203 200 198 203 206 206 205 203 197
280 282 279 275 276 279 279 277 277 282 287 292 291 292 292 292 292 292 293 290 282 278 275 272 272 270 267 266 263 263 260 258 255 258 256 248 241 240 240 240 241 240 238 218 189 202 202 212 206 201 201 196 203 207 220 202 131 175 193 204 206 206 202 204 203 198 197 195 193 195 197 200 203 199
274 276 279 280 281 284 288 293 297 298 295 290 287 286 285 285 285 283 271 271 270 268 266 267 268 265 264 264 265 269 271 272 267 258 257 256 251 242 237 237 235 236 235 224 199 205 207 206 213 194 202 203 205 213 210 207 177 191 184 173 201 207 204 203 201 196 194 193 195 194 198 194 193 193
285 286 287 287 290 292 291 288 283 276 276 278 281 283 286 288 280 271 268 259 260 261 267 266 266 265 266 261 263 268 266 265 262 263 259 252 248 239 236 234 234 233 231 224 205 208 209 208 213 195 197 204 207 213 208 195 196 192 183 189 194 187 199 195 198 197 190 193 195 195 199 195 195 192
277 274 275 272 272 274 277 278 280 283 285 286 285 284 280 273 270 265 257 260 262 264 264 264 262 264 263 262 257 251 256 257 255 251 257 255 247 234 230 231 235 231 226 221 209 206 209 210 212 197 199 204 209 215 206 197 200 181 190 192 177 185 191 197 197 192 194 195 193 193 196 194 198 202
266 266 269 272 274 274 271 272 264 263 264 269 274 272 269 265 263 263 265 266 261 258 257 257 264 264 264 261 259 257 251 251 253 247 247 249 246 237 231 230 229 227 226 212 206 208 209 210 212 209 202 200 206 212 208 201 202 188 189 190 195 199 177 184 189 195 189 177 182 197 197 195 194 197
291 281 275 254 264 259 268 269 270 272 269 264 261 262 262 261 261 262 255 257 255 258 259 258 258 261 258 260 259 261 261 260 258 247 244 240 241 234 222 225 224 223 222 209 197 203 205 213 216 215 207 210 209 202 194 202 212 192 186 189 190 195 184 193 192 185 169 177 193 192 195 195 199 198
312 307 300 300 299 298 299 293 286 282 279 280 276 274 276 276 271 263 261 258 261 256 254 257 258 260 263 266 265 267 268 270 265 252 237 237 231 230 222 220 222 224 222 213 191 196 194 198 163 29 214 186 276 205 199 201 206 193 189 186 188 195 193 182 191 182 179 187 183 184 188 198 198 170
308 307 309 307 302 295 290 285 283 284 284 283 280 277 274 268 269 272 267 265 260 260 258 257 256 258 260 266 269 269 269 269 263 248 236 233 225 223 221 218 218 220 217 216 190 184 179 179 166 155 91 144 209 289 297 224 201 191 186 195 191 194 187 181 184 185 183 188 186 188 193 195 196 191
316 316 310 304 299 293 286 285 290 290 288 289 290 288 286 283 275 271 266 261 258 261 260 258 261 260 263 261 266 269 272 270 260 242 237 224 223 216 211 209 208 211 210 213 188 172 170 177 179 189 193 194 204 216 222 211 203 187 184 196 196 192 180 175 183 182 181 187 191 188 192 195 196 185
318 316 313 307 305 305 302 299 298 295 291 290 290 289 286 285 281 271 267 267 266 262 256 257 256 259 260 267 268 268 270 273 263 251 246 235 220 214 208 204 201 201 203 204 167 167 167 177 187 195 200 202 203 211 217 148 197 235 193 192 189 185 176 170 170 185 195 189 191 196 199 193 193 170
313 311 303 301 302 304 300 301 301 299 296 296 293 291 288 283 283 278 275 272 265 257 255 253 254 256 256 255 262 268 273 271 266 257 249 236 234 223 210 199 192 192 193 182 157 172 179 183 189 200 203 205 205 212 214 178 183 223 222 200 185 180 167 162 176 187 192 191 194 199 197 190 180 145
305 304 308 308 310 312 309 305 302 300 300 301 298 293 293 292 288 287 281 271 262 257 255 254 251 251 257 263 263 265 270 273 266 253 246 243 226 222 206 199 189 179 170 163 158 174 182 196 193 200 206 209 210 209 210 193 206 202 186 195 171 162 175 177 184 186 179 180 186 148 60 78 90 124
311 311 310 311 306 306 302 303 300 299 298 298 295 291 296 300 297 295 289 278 266 261 258 257 260 262 261 258 262 268 273 273 269 255 240 230 228 220 213 201 199 183 184 176 173 179 185 201 202 203 208 215 223 221 118 99 76 53 127 196 194 179 180 178 182 174 178 180 158 149 149 142 144 158
317 313 309 303 300 299 299 298 297 297 298 298 299 305 307 302 303 299 291 278 264 263 261 259 259 260 261 264 266 268 271 272 268 261 245 227 215 208 203 194 194 177 172 173 176 182 198 203 207 205 174 93 111 110 90 80 93 152 173 187 197 193 187 199 183 174 171 163 162 162 163 166 162 159
310 308 307 304 300 298 296 296 298 301 300 302 306 308 305 307 306 311 311 299 283 270 263 264 262 260 261 262 264 265 263 264 269 266 246 213 196 197 199 185 183 171 179 178 184 199 198 140 129 131 141 148 128 160 191 188 175 155 154 150 141 156 154 165 189 190 170 159 153 150 122 83 105 154
308 304 303 304 303 300 301 302 303 303 302 304 308 309 308 308 309 311 312 313 309 301 286 277 271 269 270 268 265 261 258 256 251 243 222 218 214 193 189 188 191 183 195 194 158 122 123 144 142 140 155 169 193 196 204 179 155 151 148 125 127 118 134 146 129 130 137 114 75 154 169 170 164 182
309 307 303 302 302 304 304 304 302 304 305 306 305 308 311 311 310 309 311 314 316 312 309 301 294 285 277 271 269 262 250 250 242 236 222 210 199 199 198 200 197 183 136 117 130 132 123 136 160 158 161 185 184 185 162 129 149 155 151 145 127 124 128 119 129 136 131 114 106 94 83 73 41 45
309 308 307 307 307 306 305 305 307 307 308 308 308 310 313 313 311 312 313 318 318 317 315 312 309 304 300 293 285 270 256 248 242 229 218 209 207 204 203 180 149 133 142 141 130 121 129 130 128 135 123 94 90 144 132 142 144 141 141 143 142 139 132 136 133 123 117 110 117 108 94 90 105 115